contact:dominique.lefevre@mio.osupytheas.fr, maurice.libes@osupytheas.fr, didier.mallarino@osupytheas.fr
Project:EMSO http://www.emso-fr.org/EMSO-France
Depth: 2436.0 m
Title:EMSO Ligure Ouest : Data MII capteur CSTAR
DateTime,Latitude,Longitude,Instrument_Serial,Reference_Counts,Signal_Counts,Corrected_Signal_raw_counts,Calculated_Beam_c_inverse_meters,Internal_thermistor_counts
DateTime,Latitude,Longitude,Instrument_Serial,Reference_Counts,Signal_Counts,Corrected_Signal_raw_counts,Calculated_Beam_c_inverse_meters,Internal_thermistor_counts
2019-06-03T00:02:15,42.805,6.029,CST-1368DR,9229,12916,15559,0.015,551
2019-06-03T00:05:17,42.805,6.029,CST-1368DR,9229,12916,15559,0.015,551
2019-06-03T00:08:18,42.805,6.029,CST-1368DR,9229,12916,15559,0.015,551
2019-06-03T00:11:20,42.805,6.029,CST-1368DR,9229,12916,15559,0.015,551
2019-06-03T00:14:21,42.805,6.029,CST-1368DR,9229,12916,15559,0.015,551
2019-06-03T00:17:23,42.805,6.029,CST-1368DR,9229,12916,15559,0.015,551
2019-06-03T00:20:24,42.805,6.029,CST-1368DR,9229,12916,15559,0.015,551
2019-06-03T00:23:25,42.805,6.029,CST-1368DR,9229,12916,15559,0.015,551
2019-06-03T00:26:27,42.805,6.029,CST-1368DR,9229,12917,15560,0.014,551
2019-06-03T00:29:28,42.805,6.029,CST-1368DR,9229,12915,15557,0.015,550
2019-06-03T00:32:30,42.805,6.029,CST-1368DR,9229,12916,15559,0.015,551
2019-06-03T00:35:31,42.805,6.029,CST-1368DR,9229,12917,15559,0.015,551
2019-06-03T00:38:32,42.805,6.029,CST-1368DR,9229,12917,15559,0.015,551
2019-06-03T00:41:34,42.805,6.029,CST-1368DR,9229,12916,15559,0.015,551
2019-06-03T00:44:35,42.805,6.029,CST-1368DR,9229,12916,15559,0.015,550
2019-06-03T00:47:37,42.805,6.029,CST-1368DR,9229,12914,15557,0.015,551
2019-06-03T00:50:38,42.805,6.029,CST-1368DR,9229,12915,15558,0.015,551
2019-06-03T00:53:39,42.805,6.029,CST-1368DR,9229,12915,15557,0.015,551
2019-06-03T00:56:41,42.805,6.029,CST-1368DR,9229,12913,15555,0.016,551
2019-06-03T00:59:42,42.805,6.029,CST-1368DR,9229,12915,15558,0.015,551
2019-06-03T01:02:44,42.805,6.029,CST-1368DR,9229,12915,15558,0.015,551
2019-06-03T01:05:45,42.805,6.029,CST-1368DR,9229,12915,15557,0.015,551
2019-06-03T01:08:46,42.805,6.029,CST-1368DR,9229,12913,15556,0.015,550
2019-06-03T01:11:48,42.805,6.029,CST-1368DR,9229,12914,15556,0.015,551
2019-06-03T01:14:49,42.805,6.029,CST-1368DR,9229,12915,15558,0.015,551
2019-06-03T01:17:51,42.805,6.029,CST-1368DR,9229,12915,15558,0.015,550
2019-06-03T01:20:52,42.805,6.029,CST-1368DR,9229,12916,15559,0.015,551
2019-06-03T01:23:54,42.805,6.029,CST-1368DR,9228,12915,15559,0.015,551
2019-06-03T01:26:55,42.805,6.029,CST-1368DR,9228,12915,15559,0.015,551
2019-06-03T01:29:56,42.805,6.029,CST-1368DR,9228,12915,15559,0.015,551
2019-06-03T01:32:58,42.805,6.029,CST-1368DR,9228,12914,15558,0.015,551
2019-06-03T01:35:59,42.805,6.029,CST-1368DR,9228,12915,15560,0.014,551
2019-06-03T01:39:01,42.805,6.029,CST-1368DR,9228,12914,15558,0.015,551
2019-06-03T01:42:02,42.805,6.029,CST-1368DR,9228,12914,15558,0.015,551
2019-06-03T01:45:03,42.805,6.029,CST-1368DR,9228,12915,15559,0.015,551
2019-06-03T01:48:05,42.805,6.029,CST-1368DR,9228,12914,15557,0.015,551
2019-06-03T01:51:06,42.805,6.029,CST-1368DR,9228,12914,15557,0.015,551
2019-06-03T01:54:08,42.805,6.029,CST-1368DR,9228,12911,15554,0.016,551
2019-06-03T01:57:09,42.805,6.029,CST-1368DR,9228,12913,15557,0.015,551
2019-06-03T02:00:10,42.805,6.029,CST-1368DR,9228,12914,15558,0.015,550
2019-06-03T02:03:12,42.805,6.029,CST-1368DR,9228,12914,15558,0.015,551
2019-06-03T02:06:13,42.805,6.029,CST-1368DR,9228,12913,15557,0.015,551
2019-06-03T02:09:15,42.805,6.029,CST-1368DR,9228,12914,15558,0.015,551
2019-06-03T02:12:16,42.805,6.029,CST-1368DR,9228,12914,15557,0.015,551
2019-06-03T02:15:17,42.805,6.029,CST-1368DR,9228,12914,15558,0.015,551
2019-06-03T02:18:19,42.805,6.029,CST-1368DR,9228,12914,15557,0.015,551
2019-06-03T02:21:20,42.805,6.029,CST-1368DR,9228,12914,15558,0.015,551
2019-06-03T02:24:22,42.805,6.029,CST-1368DR,9228,12913,15557,0.015,551
2019-06-03T02:27:23,42.805,6.029,CST-1368DR,9228,12913,15557,0.015,551
2019-06-03T02:30:25,42.805,6.029,CST-1368DR,9228,12914,15557,0.015,551
2019-06-03T02:33:26,42.805,6.029,CST-1368DR,9228,12907,15550,0.017,551
2019-06-03T02:36:27,42.805,6.029,CST-1368DR,9228,12913,15557,0.015,551
2019-06-03T02:39:29,42.805,6.029,CST-1368DR,9228,12913,15557,0.015,551
2019-06-03T02:42:30,42.805,6.029,CST-1368DR,9228,12914,15557,0.015,551
2019-06-03T02:45:32,42.805,6.029,CST-1368DR,9228,12914,15558,0.015,551
2019-06-03T02:48:33,42.805,6.029,CST-1368DR,9227,12912,15557,0.015,551
2019-06-03T02:51:34,42.805,6.029,CST-1368DR,9228,12914,15557,0.015,550
2019-06-03T02:54:36,42.805,6.029,CST-1368DR,9227,12913,15559,0.015,551
2019-06-03T02:57:37,42.805,6.029,CST-1368DR,9227,12914,15560,0.014,551
2019-06-03T03:00:39,42.805,6.029,CST-1368DR,9227,12913,15559,0.015,551
2019-06-03T03:03:40,42.805,6.029,CST-1368DR,9227,12913,15558,0.015,551
2019-06-03T03:06:41,42.805,6.029,CST-1368DR,9227,12912,15557,0.015,551
2019-06-03T03:09:43,42.805,6.029,CST-1368DR,9227,12910,15555,0.016,551
2019-06-03T03:12:44,42.805,6.029,CST-1368DR,9227,12911,15556,0.015,551
2019-06-03T03:15:46,42.805,6.029,CST-1368DR,9227,12912,15557,0.015,551
2019-06-03T03:18:47,42.805,6.029,CST-1368DR,9227,12913,15558,0.015,551
2019-06-03T03:21:49,42.805,6.029,CST-1368DR,9227,12914,15559,0.015,551
2019-06-03T03:24:50,42.805,6.029,CST-1368DR,9227,12912,15557,0.015,550
2019-06-03T03:27:51,42.805,6.029,CST-1368DR,9227,12913,15558,0.015,551
2019-06-03T03:30:53,42.805,6.029,CST-1368DR,9227,12914,15559,0.015,551
2019-06-03T03:33:54,42.805,6.029,CST-1368DR,9227,12913,15558,0.015,551
2019-06-03T03:36:56,42.805,6.029,CST-1368DR,9227,12908,15552,0.016,551
2019-06-03T03:39:57,42.805,6.029,CST-1368DR,9227,12912,15557,0.015,551
2019-06-03T03:42:58,42.805,6.029,CST-1368DR,9227,12910,15555,0.016,551
2019-06-03T03:46:00,42.805,6.029,CST-1368DR,9227,12912,15557,0.015,551
2019-06-03T03:49:01,42.805,6.029,CST-1368DR,9227,12912,15557,0.015,551
2019-06-03T03:52:03,42.805,6.029,CST-1368DR,9227,12913,15558,0.015,551
2019-06-03T03:55:04,42.805,6.029,CST-1368DR,9227,12913,15558,0.015,550
2019-06-03T03:58:05,42.805,6.029,CST-1368DR,9227,12914,15559,0.015,551
2019-06-03T04:01:07,42.805,6.029,CST-1368DR,9227,12911,15556,0.015,551
2019-06-03T04:04:08,42.805,6.029,CST-1368DR,9227,12912,15557,0.015,551
2019-06-03T04:07:10,42.805,6.029,CST-1368DR,9227,12912,15557,0.015,551
2019-06-03T04:10:11,42.805,6.029,CST-1368DR,9226,12908,15554,0.016,551
2019-06-03T04:13:12,42.805,6.029,CST-1368DR,9226,12911,15557,0.015,550
2019-06-03T04:16:14,42.805,6.029,CST-1368DR,9226,12912,15559,0.015,551
2019-06-03T04:19:15,42.805,6.029,CST-1368DR,9226,12911,15557,0.015,551
2019-06-03T04:22:17,42.805,6.029,CST-1368DR,9226,12911,15557,0.015,550
2019-06-03T04:25:18,42.805,6.029,CST-1368DR,9226,12911,15557,0.015,551
2019-06-03T04:28:20,42.805,6.029,CST-1368DR,9226,12913,15560,0.014,551
2019-06-03T04:31:21,42.805,6.029,CST-1368DR,9226,12911,15557,0.015,550
2019-06-03T04:34:22,42.805,6.029,CST-1368DR,9226,12911,15557,0.015,551
2019-06-03T04:37:24,42.805,6.029,CST-1368DR,9226,12906,15551,0.017,551
2019-06-03T04:40:25,42.805,6.029,CST-1368DR,9226,12908,15554,0.016,551
2019-06-03T04:43:27,42.805,6.029,CST-1368DR,9226,12913,15559,0.015,551
2019-06-03T04:46:28,42.805,6.029,CST-1368DR,9226,12909,15555,0.016,551
2019-06-03T04:49:29,42.805,6.029,CST-1368DR,9226,12900,15544,0.018,550
2019-06-03T04:52:31,42.805,6.029,CST-1368DR,9226,12911,15557,0.015,551
2019-06-03T04:55:32,42.805,6.029,CST-1368DR,9226,12911,15557,0.015,551
2019-06-03T04:58:34,42.805,6.029,CST-1368DR,9226,12911,15557,0.015,551
2019-06-03T05:01:35,42.805,6.029,CST-1368DR,9226,12910,15557,0.015,551
2019-06-03T05:04:36,42.805,6.029,CST-1368DR,9226,12911,15557,0.015,551
2019-06-03T05:07:38,42.805,6.029,CST-1368DR,9226,12909,15554,0.016,551
2019-06-03T05:10:39,42.805,6.029,CST-1368DR,9226,12910,15557,0.015,551
2019-06-03T05:13:41,42.805,6.029,CST-1368DR,9226,12911,15558,0.015,551
2019-06-03T05:16:42,42.805,6.029,CST-1368DR,9226,12911,15557,0.015,551
2019-06-03T05:19:43,42.805,6.029,CST-1368DR,9226,12908,15554,0.016,551
2019-06-03T05:22:45,42.805,6.029,CST-1368DR,9226,12912,15558,0.015,551
2019-06-03T05:25:46,42.805,6.029,CST-1368DR,9226,12911,15557,0.015,551
2019-06-03T05:28:48,42.805,6.029,CST-1368DR,9226,12906,15551,0.017,551
2019-06-03T05:31:49,42.805,6.029,CST-1368DR,9226,12911,15557,0.015,551
2019-06-03T05:34:51,42.805,6.029,CST-1368DR,9225,12910,15558,0.015,551
2019-06-03T05:37:52,42.805,6.029,CST-1368DR,9226,12911,15557,0.015,551
2019-06-03T05:40:53,42.805,6.029,CST-1368DR,9225,12911,15559,0.015,551
2019-06-03T05:43:55,42.805,6.029,CST-1368DR,9225,12911,15559,0.015,551
2019-06-03T05:46:56,42.805,6.029,CST-1368DR,9226,12910,15557,0.015,550
2019-06-03T05:49:58,42.805,6.029,CST-1368DR,9225,12910,15558,0.015,551
2019-06-03T05:52:59,42.805,6.029,CST-1368DR,9225,12910,15558,0.015,551
2019-06-03T05:56:00,42.805,6.029,CST-1368DR,9225,12904,15551,0.017,550
2019-06-03T05:59:02,42.805,6.029,CST-1368DR,9225,12907,15554,0.016,551
2019-06-03T06:02:03,42.805,6.029,CST-1368DR,9225,12911,15558,0.015,551
2019-06-03T06:05:05,42.805,6.029,CST-1368DR,9225,12908,15555,0.016,551
2019-06-03T06:08:06,42.805,6.029,CST-1368DR,9225,12911,15559,0.015,551
2019-06-03T06:11:07,42.805,6.029,CST-1368DR,9225,12910,15558,0.015,551
2019-06-03T06:14:09,42.805,6.029,CST-1368DR,9225,12910,15557,0.015,550
2019-06-03T06:17:10,42.805,6.029,CST-1368DR,9225,12910,15557,0.015,551
2019-06-03T06:20:12,42.805,6.029,CST-1368DR,9225,12910,15558,0.015,551
2019-06-03T06:23:13,42.805,6.029,CST-1368DR,9225,12911,15558,0.015,551
2019-06-03T06:26:15,42.805,6.029,CST-1368DR,9225,12908,15555,0.016,550
2019-06-03T06:29:16,42.805,6.029,CST-1368DR,9225,12905,15552,0.016,551
2019-06-03T06:32:17,42.805,6.029,CST-1368DR,9225,12910,15558,0.015,550
2019-06-03T06:35:19,42.805,6.029,CST-1368DR,9225,12911,15558,0.015,551
2019-06-03T06:38:20,42.805,6.029,CST-1368DR,9225,12911,15558,0.015,551
2019-06-03T06:41:22,42.805,6.029,CST-1368DR,9225,12908,15555,0.016,551
2019-06-03T06:44:23,42.805,6.029,CST-1368DR,9225,12909,15557,0.015,551
2019-06-03T06:47:24,42.805,6.029,CST-1368DR,9225,12910,15558,0.015,551
2019-06-03T06:50:26,42.805,6.029,CST-1368DR,9225,12908,15555,0.016,551
2019-06-03T06:53:27,42.805,6.029,CST-1368DR,9225,12906,15553,0.016,551
2019-06-03T06:56:29,42.805,6.029,CST-1368DR,9225,12911,15559,0.015,551
2019-06-03T06:59:30,42.805,6.029,CST-1368DR,9225,12910,15558,0.015,550
2019-06-03T07:02:31,42.805,6.029,CST-1368DR,9225,12910,15558,0.015,551
2019-06-03T07:05:33,42.805,6.029,CST-1368DR,9225,12911,15559,0.015,551
2019-06-03T07:08:34,42.805,6.029,CST-1368DR,9225,12910,15558,0.015,550
2019-06-03T07:11:36,42.805,6.029,CST-1368DR,9225,12910,15558,0.015,551
2019-06-03T07:14:37,42.805,6.029,CST-1368DR,9224,12907,15555,0.016,551
2019-06-03T07:17:38,42.805,6.029,CST-1368DR,9225,12910,15558,0.015,551
2019-06-03T07:20:40,42.805,6.029,CST-1368DR,9225,12909,15556,0.015,551
2019-06-03T07:23:41,42.805,6.029,CST-1368DR,9224,12907,15556,0.015,551
2019-06-03T07:26:43,42.805,6.029,CST-1368DR,9224,12906,15554,0.016,550
2019-06-03T07:29:44,42.805,6.029,CST-1368DR,9224,12910,15559,0.015,551
2019-06-03T07:32:46,42.805,6.029,CST-1368DR,9224,12906,15554,0.016,551
2019-06-03T07:35:47,42.805,6.029,CST-1368DR,9224,12908,15557,0.015,551
2019-06-03T07:38:48,42.805,6.029,CST-1368DR,9224,12907,15556,0.015,551
2019-06-03T07:41:50,42.805,6.029,CST-1368DR,9224,12908,15556,0.015,551
2019-06-03T07:44:51,42.805,6.029,CST-1368DR,9224,12909,15558,0.015,551
2019-06-03T07:47:53,42.805,6.029,CST-1368DR,9224,12907,15556,0.015,550
2019-06-03T07:50:54,42.805,6.029,CST-1368DR,9224,12906,15554,0.016,551
2019-06-03T07:53:55,42.805,6.029,CST-1368DR,9224,12909,15558,0.015,550
2019-06-03T07:56:57,42.805,6.029,CST-1368DR,9224,12907,15556,0.015,551
2019-06-03T07:59:58,42.805,6.029,CST-1368DR,9224,12908,15557,0.015,551
2019-06-03T08:03:00,42.805,6.029,CST-1368DR,9224,12908,15557,0.015,550
2019-06-03T08:06:01,42.805,6.029,CST-1368DR,9224,12909,15558,0.015,551
2019-06-03T08:09:02,42.805,6.029,CST-1368DR,9224,12909,15558,0.015,550
2019-06-03T08:12:04,42.805,6.029,CST-1368DR,9224,12904,15552,0.016,551
2019-06-03T08:15:05,42.805,6.029,CST-1368DR,9224,12908,15556,0.015,551
2019-06-03T08:18:07,42.805,6.029,CST-1368DR,9224,12908,15557,0.015,551
2019-06-03T08:21:08,42.805,6.029,CST-1368DR,9224,12909,15558,0.015,550
2019-06-03T08:24:09,42.805,6.029,CST-1368DR,9224,12908,15557,0.015,551
2019-06-03T08:27:11,42.805,6.029,CST-1368DR,9224,12909,15558,0.015,551
2019-06-03T08:30:12,42.805,6.029,CST-1368DR,9224,12908,15557,0.015,551
2019-06-03T08:33:14,42.805,6.029,CST-1368DR,9224,12907,15555,0.016,551
2019-06-03T08:36:15,42.805,6.029,CST-1368DR,9224,12899,15546,0.018,551
2019-06-03T08:39:17,42.805,6.029,CST-1368DR,9224,12909,15558,0.015,551
2019-06-03T08:42:18,42.805,6.029,CST-1368DR,9224,12905,15553,0.016,551
2019-06-03T08:45:19,42.805,6.029,CST-1368DR,9224,12908,15557,0.015,551
2019-06-03T08:48:21,42.805,6.029,CST-1368DR,9224,12907,15556,0.015,551
2019-06-03T08:51:22,42.805,6.029,CST-1368DR,9224,12907,15556,0.015,551
2019-06-03T08:54:24,42.805,6.029,CST-1368DR,9224,12907,15556,0.015,551
2019-06-03T08:57:25,42.805,6.029,CST-1368DR,9224,12908,15556,0.015,550
2019-06-03T09:00:26,42.805,6.029,CST-1368DR,9224,12906,15554,0.016,551
2019-06-03T09:03:28,42.805,6.029,CST-1368DR,9224,12907,15556,0.015,551
2019-06-03T09:06:29,42.805,6.029,CST-1368DR,9224,12907,15556,0.015,551
2019-06-03T09:09:31,42.805,6.029,CST-1368DR,9224,12908,15557,0.015,551
2019-06-03T09:12:32,42.805,6.029,CST-1368DR,9224,12907,15556,0.015,551
2019-06-03T09:15:33,42.805,6.029,CST-1368DR,9223,12908,15559,0.015,551
2019-06-03T09:18:35,42.805,6.029,CST-1368DR,9223,12907,15557,0.015,551
2019-06-03T09:21:36,42.805,6.029,CST-1368DR,9223,12908,15559,0.015,551
2019-06-03T09:24:38,42.805,6.029,CST-1368DR,9223,12908,15559,0.015,551
2019-06-03T09:27:39,42.805,6.029,CST-1368DR,9223,12907,15557,0.015,551
2019-06-03T09:30:40,42.805,6.029,CST-1368DR,9223,12908,15558,0.015,551
2019-06-03T09:33:42,42.805,6.029,CST-1368DR,9223,12906,15555,0.016,551
2019-06-03T09:36:43,42.805,6.029,CST-1368DR,9223,12909,15560,0.014,551
2019-06-03T09:39:45,42.805,6.029,CST-1368DR,9223,12908,15559,0.015,551
2019-06-03T09:42:46,42.805,6.029,CST-1368DR,9223,12907,15557,0.015,551
2019-06-03T09:45:48,42.805,6.029,CST-1368DR,9223,12907,15557,0.015,551
2019-06-03T09:48:49,42.805,6.029,CST-1368DR,9223,12908,15558,0.015,551
2019-06-03T09:51:50,42.805,6.029,CST-1368DR,9223,12907,15558,0.015,551
2019-06-03T09:54:52,42.805,6.029,CST-1368DR,9223,12907,15557,0.015,551
2019-06-03T09:57:53,42.805,6.029,CST-1368DR,9223,12907,15558,0.015,551
2019-06-03T10:00:55,42.805,6.029,CST-1368DR,9223,12907,15557,0.015,551
2019-06-03T10:03:56,42.805,6.029,CST-1368DR,9223,12906,15556,0.015,550
2019-06-03T10:06:57,42.805,6.029,CST-1368DR,9223,12906,15556,0.015,551
2019-06-03T10:09:59,42.805,6.029,CST-1368DR,9223,12905,15555,0.016,550
2019-06-03T10:13:00,42.805,6.029,CST-1368DR,9223,12906,15556,0.015,551
2019-06-03T10:16:02,42.805,6.029,CST-1368DR,9223,12907,15557,0.015,551
2019-06-03T10:19:03,42.805,6.029,CST-1368DR,9223,12907,15557,0.015,551
2019-06-03T10:22:04,42.805,6.029,CST-1368DR,9223,12908,15558,0.015,551
2019-06-03T10:25:06,42.805,6.029,CST-1368DR,9223,12906,15556,0.015,550
2019-06-03T10:28:07,42.805,6.029,CST-1368DR,9223,12908,15558,0.015,551
2019-06-03T10:31:09,42.805,6.029,CST-1368DR,9223,12905,15555,0.016,551
2019-06-03T10:34:10,42.805,6.029,CST-1368DR,9223,12907,15557,0.015,551
2019-06-03T10:37:11,42.805,6.029,CST-1368DR,9223,12907,15557,0.015,550
2019-06-03T10:40:13,42.805,6.029,CST-1368DR,9223,12907,15557,0.015,551
2019-06-03T10:43:14,42.805,6.029,CST-1368DR,9223,12906,15556,0.015,551
2019-06-03T10:46:16,42.805,6.029,CST-1368DR,9222,12905,15556,0.015,551
2019-06-03T10:49:17,42.805,6.029,CST-1368DR,9223,12904,15554,0.016,551
2019-06-03T10:52:19,42.805,6.029,CST-1368DR,9222,12906,15557,0.015,551
2019-06-03T10:55:20,42.805,6.029,CST-1368DR,9222,12906,15558,0.015,551
2019-06-03T10:58:21,42.805,6.029,CST-1368DR,9222,12903,15553,0.016,550
2019-06-03T11:01:23,42.805,6.029,CST-1368DR,9222,12906,15558,0.015,551
2019-06-03T11:04:24,42.805,6.029,CST-1368DR,9222,12906,15557,0.015,551
2019-06-03T11:07:26,42.805,6.029,CST-1368DR,9222,12906,15558,0.015,551
2019-06-03T11:10:27,42.805,6.029,CST-1368DR,9222,12906,15557,0.015,551
2019-06-03T11:13:28,42.805,6.029,CST-1368DR,9222,12906,15557,0.015,551
2019-06-03T11:16:30,42.805,6.029,CST-1368DR,9222,12906,15557,0.015,551
2019-06-03T11:19:31,42.805,6.029,CST-1368DR,9222,12906,15558,0.015,551
2019-06-03T11:22:33,42.805,6.029,CST-1368DR,9222,12903,15554,0.016,551
2019-06-03T11:25:34,42.805,6.029,CST-1368DR,9222,12906,15558,0.015,551
2019-06-03T11:28:35,42.805,6.029,CST-1368DR,9222,12907,15559,0.015,551
2019-06-03T11:31:37,42.805,6.029,CST-1368DR,9222,12906,15558,0.015,551
2019-06-03T11:34:38,42.805,6.029,CST-1368DR,9222,12905,15556,0.015,551
2019-06-03T11:37:40,42.805,6.029,CST-1368DR,9222,12906,15558,0.015,551
2019-06-03T11:40:41,42.805,6.029,CST-1368DR,9222,12906,15558,0.015,551
2019-06-03T11:43:42,42.805,6.029,CST-1368DR,9222,12906,15558,0.015,551
2019-06-03T11:46:44,42.805,6.029,CST-1368DR,9222,12905,15556,0.015,551
2019-06-03T11:49:45,42.805,6.029,CST-1368DR,9222,12904,15555,0.016,551
2019-06-03T11:52:47,42.805,6.029,CST-1368DR,9222,12904,15555,0.016,551
2019-06-03T11:55:48,42.805,6.029,CST-1368DR,9222,12903,15554,0.016,551
2019-06-03T11:58:50,42.805,6.029,CST-1368DR,9222,12906,15558,0.015,551
2019-06-03T12:01:51,42.805,6.029,CST-1368DR,9222,12904,15555,0.016,551
2019-06-03T12:04:52,42.805,6.029,CST-1368DR,9221,12902,15554,0.016,551
2019-06-03T12:07:54,42.805,6.029,CST-1368DR,9222,12904,15555,0.016,551
2019-06-03T12:10:55,42.805,6.029,CST-1368DR,9222,12904,15556,0.015,551
2019-06-03T12:13:57,42.805,6.029,CST-1368DR,9221,12905,15557,0.015,551
2019-06-03T12:16:58,42.805,6.029,CST-1368DR,9221,12904,15557,0.015,551
2019-06-03T12:19:59,42.805,6.029,CST-1368DR,9221,12903,15556,0.015,551
2019-06-03T12:23:01,42.805,6.029,CST-1368DR,9221,12903,15556,0.015,551
2019-06-03T12:26:02,42.805,6.029,CST-1368DR,9221,12903,15556,0.015,551
2019-06-03T12:29:04,42.805,6.029,CST-1368DR,9221,12904,15556,0.015,551
2019-06-03T12:32:05,42.805,6.029,CST-1368DR,9221,12905,15557,0.015,551
2019-06-03T12:35:06,42.805,6.029,CST-1368DR,9221,12905,15557,0.015,551
2019-06-03T12:38:08,42.805,6.029,CST-1368DR,9221,12905,15558,0.015,551
2019-06-03T12:41:09,42.805,6.029,CST-1368DR,9221,12904,15557,0.015,551
2019-06-03T12:44:11,42.805,6.029,CST-1368DR,9221,12904,15557,0.015,551
2019-06-03T12:47:12,42.805,6.029,CST-1368DR,9221,12902,15554,0.016,551
2019-06-03T12:50:14,42.805,6.029,CST-1368DR,9221,12904,15557,0.015,551
2019-06-03T12:53:15,42.805,6.029,CST-1368DR,9221,12901,15553,0.016,551
2019-06-03T12:56:16,42.805,6.029,CST-1368DR,9221,12904,15557,0.015,550
2019-06-03T12:59:18,42.805,6.029,CST-1368DR,9221,12903,15556,0.015,551
2019-06-03T13:02:19,42.805,6.029,CST-1368DR,9221,12902,15554,0.016,551
2019-06-03T13:05:21,42.805,6.029,CST-1368DR,9221,12904,15556,0.015,551
2019-06-03T13:08:22,42.805,6.029,CST-1368DR,9221,12901,15553,0.016,551
2019-06-03T13:11:23,42.805,6.029,CST-1368DR,9221,12899,15551,0.017,551
2019-06-03T13:14:25,42.805,6.029,CST-1368DR,9221,12902,15555,0.016,551
2019-06-03T13:17:26,42.805,6.029,CST-1368DR,9221,12903,15556,0.015,551
2019-06-03T13:20:28,42.805,6.029,CST-1368DR,9221,12905,15557,0.015,551
2019-06-03T13:23:29,42.805,6.029,CST-1368DR,9221,12903,15555,0.016,551
2019-06-03T13:26:30,42.805,6.029,CST-1368DR,9221,12904,15557,0.015,551
2019-06-03T13:29:32,42.805,6.029,CST-1368DR,9221,12903,15556,0.015,551
2019-06-03T13:32:33,42.805,6.029,CST-1368DR,9221,12904,15556,0.015,551
2019-06-03T13:35:35,42.805,6.029,CST-1368DR,9221,12903,15556,0.015,551
2019-06-03T13:38:36,42.805,6.029,CST-1368DR,9221,12904,15556,0.015,551
2019-06-03T13:41:37,42.805,6.029,CST-1368DR,9221,12903,15556,0.015,551
2019-06-03T13:44:39,42.805,6.029,CST-1368DR,9221,12904,15556,0.015,551
2019-06-03T13:47:40,42.805,6.029,CST-1368DR,9221,12902,15555,0.016,550
2019-06-03T13:50:42,42.805,6.029,CST-1368DR,9220,12903,15557,0.015,551
2019-06-03T13:53:43,42.805,6.029,CST-1368DR,9221,12903,15555,0.016,551
2019-06-03T13:56:45,42.805,6.029,CST-1368DR,9221,12903,15556,0.015,551
2019-06-03T13:59:46,42.805,6.029,CST-1368DR,9220,12901,15555,0.016,551
2019-06-03T14:02:47,42.805,6.029,CST-1368DR,9220,12899,15553,0.016,551
2019-06-03T14:05:49,42.805,6.029,CST-1368DR,9220,12902,15556,0.015,551
2019-06-03T14:08:50,42.805,6.029,CST-1368DR,9220,12901,15555,0.016,551
2019-06-03T14:11:52,42.805,6.029,CST-1368DR,9220,12904,15558,0.015,551
2019-06-03T14:14:53,42.805,6.029,CST-1368DR,9220,12902,15555,0.016,551
2019-06-03T14:17:54,42.805,6.029,CST-1368DR,9220,12903,15557,0.015,551
2019-06-03T14:20:56,42.805,6.029,CST-1368DR,9220,12902,15556,0.015,551
2019-06-03T14:23:57,42.805,6.029,CST-1368DR,9220,12903,15557,0.015,550
2019-06-03T14:26:59,42.805,6.029,CST-1368DR,9220,12902,15555,0.016,551
2019-06-03T14:30:00,42.805,6.029,CST-1368DR,9220,12902,15556,0.015,550
2019-06-03T14:33:01,42.805,6.029,CST-1368DR,9220,12896,15549,0.017,551
2019-06-03T14:36:03,42.805,6.029,CST-1368DR,9220,12901,15555,0.016,551
2019-06-03T14:39:04,42.805,6.029,CST-1368DR,9220,12898,15551,0.017,551
2019-06-03T14:42:06,42.805,6.029,CST-1368DR,9220,12902,15556,0.015,551
2019-06-03T14:45:07,42.805,6.029,CST-1368DR,9220,12903,15557,0.015,551
2019-06-03T14:48:08,42.805,6.029,CST-1368DR,9220,12902,15556,0.015,551
2019-06-03T14:51:10,42.805,6.029,CST-1368DR,9220,12902,15556,0.015,550
2019-06-03T14:54:11,42.805,6.029,CST-1368DR,9220,12901,15555,0.016,551
2019-06-03T14:57:13,42.805,6.029,CST-1368DR,9220,12900,15553,0.016,551
2019-06-03T15:00:14,42.805,6.029,CST-1368DR,9220,12901,15554,0.016,551
2019-06-03T15:03:16,42.805,6.029,CST-1368DR,9220,12902,15556,0.015,551
2019-06-03T15:06:17,42.805,6.029,CST-1368DR,9220,12901,15554,0.016,551
2019-06-03T15:09:18,42.805,6.029,CST-1368DR,9220,12900,15554,0.016,551
2019-06-03T15:12:20,42.805,6.029,CST-1368DR,9220,12901,15554,0.016,551
2019-06-03T15:15:21,42.805,6.029,CST-1368DR,9220,12900,15553,0.016,551
2019-06-03T15:18:23,42.805,6.029,CST-1368DR,9219,12900,15555,0.016,551
2019-06-03T15:21:24,42.805,6.029,CST-1368DR,9219,12900,15555,0.016,551
2019-06-03T15:24:25,42.805,6.029,CST-1368DR,9219,12901,15557,0.015,551
2019-06-03T15:27:27,42.805,6.029,CST-1368DR,9219,12902,15557,0.015,551
2019-06-03T15:30:28,42.805,6.029,CST-1368DR,9219,12902,15557,0.015,551
2019-06-03T15:33:30,42.805,6.029,CST-1368DR,9219,12902,15557,0.015,551
2019-06-03T15:36:31,42.805,6.029,CST-1368DR,9219,12901,15557,0.015,551
2019-06-03T15:39:32,42.805,6.029,CST-1368DR,9219,12896,15550,0.017,551
2019-06-03T15:42:34,42.805,6.029,CST-1368DR,9219,12899,15554,0.016,551
2019-06-03T15:45:35,42.805,6.029,CST-1368DR,9219,12901,15556,0.015,551
2019-06-03T15:48:37,42.805,6.029,CST-1368DR,9219,12902,15557,0.015,551
2019-06-03T15:51:38,42.805,6.029,CST-1368DR,9219,12900,15555,0.016,551
2019-06-03T15:54:39,42.805,6.029,CST-1368DR,9219,12902,15557,0.015,550
2019-06-03T15:57:41,42.805,6.029,CST-1368DR,9219,12903,15559,0.015,551
2019-06-03T16:00:42,42.805,6.029,CST-1368DR,9219,12900,15555,0.016,551
2019-06-03T16:03:44,42.805,6.029,CST-1368DR,9219,12901,15556,0.015,550
2019-06-03T16:06:45,42.805,6.029,CST-1368DR,9219,12899,15554,0.016,551
2019-06-03T16:09:47,42.805,6.029,CST-1368DR,9219,12903,15559,0.015,551
2019-06-03T16:12:48,42.805,6.029,CST-1368DR,9219,12901,15557,0.015,551
2019-06-03T16:15:49,42.805,6.029,CST-1368DR,9219,12902,15557,0.015,551
2019-06-03T16:18:51,42.805,6.029,CST-1368DR,9219,12902,15557,0.015,551
2019-06-03T16:21:52,42.805,6.029,CST-1368DR,9219,12901,15557,0.015,551
2019-06-03T16:24:54,42.805,6.029,CST-1368DR,9219,12902,15557,0.015,551
2019-06-03T16:27:55,42.805,6.029,CST-1368DR,9219,12901,15557,0.015,550
2019-06-03T16:30:56,42.805,6.029,CST-1368DR,9219,12898,15553,0.016,551
2019-06-03T16:33:58,42.805,6.029,CST-1368DR,9219,12900,15555,0.016,551
2019-06-03T16:36:59,42.805,6.029,CST-1368DR,9219,12900,15555,0.016,551